Race Results for
Tour of America's Dairyland
Various, WI
(Event Information)
Criterium on 06/25/2010

Note: Ranking points are NOT upgrade points. An explanation of ranking points can be found here.


Men - Pro/Cat 1/2

 Place Points NameCity, StateTime USAC #BibTeam
1Aurelion PASSERON   00:00.0  60 Garneau
2102.52Adam Bergman   Saint Paul, MN00:00.0 103032  623 Texas Roadhouse Cycling Team P
3106.91Andrew Gonzales   Austin, TX00:00.0 266238  27 FCS/Metro Volkswagen
4111.29Cole House   Oneida Wi00:00.0 183112  154 BMC Racing Team-USAC
5115.67Chad Hartley   Fox Point, WI00:00.0 126996  104 UCI CT: KENDA Pro Cycling pres
6120.05Mike Sherer (1 - Cat1)   Boulder, CO00:00.0 232977  98 Verizon U25 p/b ABD
7Mike NORTHEY   00:00.0  617 Rubicon Orbea
8128.82James Stemper   Wauwatosa, WI00:00.0 230799  109 UCI CT: KENDA Pro Cycling pres
9James LANGEDALE   00:00.0  31 Garneau
10James WILLIAMSON   00:00.0  124 Bike Religion
11141.97Colton Barrett (2 - Cat1)   Indianapolis, IN00:00.0 224589  624 Minnesota Junior Cycling Inc.
12146.35Ben Damhoff   Morrison, IL00:00.0 133889  19 Team GearGrinder
13150.73Rudolph Napolitano   Santa Monica, CA00:00.0 214693  50 Team Helen's
14155.12Joe Lewis   Edina, MN00:00.0 184027  612 BCV/Scion p/b Stevinson Auto
15159.50John Acker   Sherwood, WI00:00.0 67867  Team Wheel & Sprocket
16163.88Joseph Kukolla   Indianapolis, IN00:00.0 187714  626 Nova IS Corp
17168.27Erik Loberg   Cedarburg, WI00:00.0 213434  148 Nova IS Corp
18172.65Jacob Mueller   Fish Creek, WI00:00.0 248510  81 Investors Community Bank
19177.03Bryan McVey   Arlington Heights, IL00:00.0 264045  185 ReCycling Team
21181.41Tim Norris   Saint Charles, MO00:00.0 283502  51 Missouri Elite Development Tea
22185.80Thomson Remo   Fond Du Lac, WI00:00.0 212914  610 Nova IS Corp
23190.18Russell Brown   Gaithersburg, MD00:00.0 222506  69 National Capital Velo Club/Ino
24194.56Colby Elliot   San Diego , CA00:00.0 203446  123 Bike Religion
25198.95Brian Kaker   Milwaukee, WI00:00.0 240194  122 Lakes Area Physical Therapy
26203.33Andrew Bates   Evanston, IL00:00.0 145543  67 olympia orthopaedic assc.
27207.71Weston Luzadder (3 - Cat1)   Carmel, IN00:00.0 240464  44 NUVO Cultural Trail
28212.09Kevin Berger   Madison, WI00:00.0 246306  11 Team Wheel & Sprocket
29216.48Chris Arndt   Wauwatosa, WI00:00.0 219506  LAPT CC
30220.86Marc Howe   Palm Bay, FL00:00.0 264076  36 GearGrinder
31225.24Mike Tettleton   La Verne, CA00:00.0 206298  121 Bike Religion
32229.63Adam McClurg   Waukesha, WI00:00.0 222744  118 Lakes Area Physical Therapy
33234.01Peter Bell (4 - Cat1)   Cambridge, MA00:00.0 199984  MetLife Cycling Team
34238.39James Bird   Kenilworth, IL00:00.0 239434  116 ISCorp Cycling Team
35242.77Hogan Sills   West Lafayette, IN00:00.0 257611  171 Verizon U25 p/b ABD
36247.16David Haase   Fond Du Lac, WI00:00.0 14516  127 Attitude Sports
37251.54Jonathan Sundt   Austin, TX00:00.0 34666  112 Kenda Pro Cycling
38255.92Brian Rach   Chilton, WI00:00.0 257820  114 ISCorp Cycling Team
39Ben CHADDOCK   00:00.0  614 Rubicon Orbea
40264.69Matt Waite   Madison, WI00:00.0 206676  63 Team Wheel & Sprocket
41269.07Robert Bush   Louisville, KY00:00.0 233613  619 UCI CT: KENDA Pro Cycling pres
42273.45Jonathan Cook (1 - Cat2)   Madison, WI00:00.0 258925  94 Nova IS Corp
43277.84Brad Schaeffer   Indianapolis, IN00:00.0 206320  83 NUVO / Cultural Trail
44282.22Mitch Gantz   Green Bay, WI00:00.0 225382  170 Nova IS corp
45286.60Brian Koeneman (5 - Cat1)   Apple Valley, MN00:00.0 46700  41 Team Wheel & Sprocket
46290.99Morgan Wiswall   Neenah, WI00:00.0 67243  87 Team Wheel & Sprocket
48295.37Scott Rosenfield   Lake Forest, IL00:00.0 246114  100 ISCorp Cycling Team
49299.75Evan Fader   Boulder, CO00:00.0 194569  73 Investors Community Bank
50304.13Aaron Heun (6 - Cat1)   Boulder, CO00:00.0 264043  605 Bike Religion
51308.52Theodore Grober (2 - Cat2)   Evanston, IL00:00.0 14243  28 Team Helen's
52312.90Logan Garey (7 - Cat1)   Boulder, CO00:00.0 160801  25 Team Rio Grande
53317.28Brian Cornelius   Tucson, AZ00:00.0 178293  72 Trisports/Eclipse Racing
54321.67Steven Flurry   Fond Du Lac, WI00:00.0 66051  82 CZ Velo
55326.05Ian Burnett   Durango, CO00:00.0 191725  105 UCI CT: Bahati Foundation Pro
57330.43Charles (Chazz) Martin (3 - Cat2)   Wilmette, IL00:00.0 230515  101 Nova Cycle Sports Foundation I
58334.81Maxwell Anderson   Hartford, WI00:00.0 178840  163 Colavita Racing Inc.
59339.20Kyle Jacobson   Milwaukee, WI00:00.0 209985  151 Nova Cycle Sports Foundation I
60343.58Robert White (8 - Cat1)   Brown Deer, WI00:00.0 197162  162 KENDA Pro Cycling p/b GEARGRIN
61Jason ALLEN   00:00.0  615 Rubicon Orbea
62352.35Pat Lemieux (9 - Cat1)   Saint Paul, MN00:00.0 210769  622 Texas Roadhouse Cycling Team P
63356.73Austin Turner   Ogden, UT00:00.0 290106  62 CICC/Colorbiotics
DNSDavid Paquette   Decorah, IA00:00.0 264236  54 Team Wisconsin-MC2
DNSMichael Mercer (Cat2)   Milwaukee, WI00:00.0 148211  89 CZ Velo
DNFNat Bricker   Gainesville, FL00:00.0 287860  15 natbricker.com
DNFClayton Chase   Mequon, WI00:00.0 246297  18 Geargrinder
DNFDaniel Lawrence   Kenosha, WI00:00.0 224833  42 Dogfish Racing
DNFGarrett McAllister   Bend, OR00:00.0 278438  46 Team Wisconsin/MC2
DNFCorey Masson (Cat2)   Newmarket, NH00:00.0 231692  77 MetLife p/b GroSolar
DNFBen Lund   Delafield, WI00:00.0 104579  143 Cafe Hollander
DNFThomas Clark   Fort Collins, CO00:00.0 179448  149 Attitude Sports
DNFJoseph Shanahan   Fond Du Lac, WI00:00.0 139118  150 ISCorp Cycling Team
DNFDanny Robertson   Rolling Meadows, IL00:00.0 256071  184 Verizon U25 p/b ABD

Men - Cat 1/2/3

 Place Points NameCity, StateTime USAC #BibTeam
2206.31Todd Hancock   Indianapolis, IN00:00.0 63342  453 ISCorp Cycling Team
3212.03Aaron Frahm   Mebane, NC00:00.0 200581  522 Nova Cycle Sports Foundation I
4Rory MCADAMS   00:00.0  488 Glotman Simpson
5Frankie ANDREAU   00:00.0  527 Kenda
6229.18Matt Muyres   Bloomington, MN00:00.0 160576  521 Synergy
7234.89Jonathan Atkins   Peachtree City, GA00:00.0 2039  514 Cafe Hollander
8240.61Greg Cullen   Menasha, WI00:00.0 53729  483 Team Wheel & Sprocket
9246.32Albertus Rohling   West Allis, WI00:00.0 150594  394 
10252.04Mike Buechel   Atlanta, GA00:00.0 50377  426 Cafe Hollander RDC
11257.76Jeff Kapheim   Appleton, WI00:00.0 48002  481 Team Wheel & Sprocket
12263.47Peter Coons   Neenah, WI00:00.0 47172  503 Team Wheel & Sprocket
13269.19Michael Williams   San Marcos, CA00:00.0 184434  398 Ca Pools / Dewalt Racing
14274.91Doug Wambach   Menomonee Falls, WI00:00.0 263312  438 Chiropractic Partners
15280.62Gerald Finken   Fargo, ND00:00.0 49239  536 Grand Performance
16Tim WOODCOCK   00:00.0  491 Woodcock Cycle Works
17292.06Christopher Morris   Wausau, WI00:00.0 55692  387 GDVC
18297.77Craig Shwonek   Sagamore Hills, OH00:00.0 55615  395 
19303.49Thomas Frueh   Ottawa Hills, OH00:00.0 46655  369 Carbon Racing
20309.21John Robertson   Sherwood, WI00:00.0 59327  393 O2 Cycling
21314.92John Kane   Madison, WI00:00.0 53997  513 Unattached
22320.64Timothy Stumpf (1 - Cat2)   Appleton, WI00:00.0 34505  515 Team Wheel & Sprocket
23326.36John Fleckenstein   Pewaukee, WI00:00.0 125362  366 Team Mack Racing
24332.07Chris Black   San Luis Obispo, CA00:00.0 3814  361 Morgan Stanley Smith Barney /
25337.79Thomas Cox   Bloomington, IN00:00.0 8003  470 Alderfer Bergen
26343.51Vance James   Lakeland, FL00:00.0 47935  372 Ball Watch Cycling Team
27349.22Adam Baskin   Clermont, FL00:00.0 88669  360 Ball Watch Cycling Team
28354.94John Svanda   Neenah Wi00:00.0 278789  482 Lakes Area Physical Therapy
29360.66Ray Reinders   Trinity, FL00:00.0 248260  392 Florida Velo
30366.37Mark Dolin   Janesville, WI00:00.0 9724  478 Lakes Area Physical Therapy
31372.09Richard Spielberg   No City, MN00:00.0 48903  519 Minnesota Cycling Team
32377.81Bob Karlow   Crystal Lake, IL00:00.0 285533  432 Verdigris Cycling
33383.52Eric Knuth   Madison, WI00:00.0 203995  376 Fisher Midwest Road Team
34389.24Brian Grant   Crystal Lake, IL00:00.0 314520  370 Team Mack Racing Association
35394.95William Ochowicz   Pewaukee, WI00:00.0 101140  419 Nova Cycle Sports Foundation I
36400.67Chris Gagne   Las Vegas, NV00:00.0 218554  422 CA Pools Racing
37406.39Richard Protasiewicz   Wauwatosa, WI00:00.0 28762  449 Cafe Hollander RDC
38412.10Mark Sills   Champaign, IL00:00.0 219887  535 Verizon Wireless Racing
39417.82Michael Klapperich   Fond Du Lac, WI00:00.0 246141  373 LAPT
40423.54Steve Manthey (1 - Cat3)   Elkhart Lake, WI00:00.0 185369  442 Team Gear Grinder
41429.25Billy Jones   Milwaukee, WI00:00.0 53173  415 ISCorp Cycling Team
42434.97Brian Rybarik   Madison, WI00:00.0 120099  458 Nova IS Corp
43440.69Thomas Craven   Greenville, SC00:00.0 45215  523 Nova IS Corp
44446.40David Jablonowski   Milwaukee, WI00:00.0 47846  447 Cafe Hollander RDC
45452.12Christopher Johnston   Wayzata, MN00:00.0 50643  439 Tonka Cycle & Ski
46457.84John Buran   Manitowoc, WI00:00.0 75814  472 Heavy Pedal Velo
47463.55Mike McKenna   Richfield, WI00:00.0 50145  445 Cafe Hollander
48469.27Robert Ruggles   Lake Forest, IL00:00.0 249774  435 Hampshire Cycle Club
49474.99Kurt Phillips   Lakeland, FL00:00.0 49190  390 Ball Watch Cycling Team
DNSSteven Flurry   Fond Du Lac, WI00:00.0 66051  367 CZ Velo
DNSJason Kozicki   Green Bay, WI00:00.0 160070  377 Colavita Racing
DNSBrian Petted   Cedarburg, WI00:00.0 58472  389 Team Extreme
DNFChris Halverson   Madison, WI 188913  371 Nova Cycle Sports Foundation
DNFTaggert Brooks   La Crosse, WI00:00.0 4987  362 CZ Velo
DNFDave Eckel   Trevor, WI00:00.0 122771  365 
DNFRichard Foley   Wallingford, CT00:00.0 11947  368 BETHEL CYCLE SPORT
DNFJeffrey Kloppenburg   Jackson, WY00:00.0 170768  374 Teton Orthopaedics Masters Tea
DNFJay LaBonne   Pleasant Prairie, WI00:00.0 216019  379 Velo Trocadero
DNFSamuel Tobias   Fond Du Lac, WI00:00.0 183996  396 Nova Cycling Foundation
DNFGene Tolli   Albany, WI00:00.0 83764  397 CZ Velo
DNFRichard Fuqua   Atlanta, GA00:00.0 128853  427 Cafe Hollander
DNFThomas Felton   Henrico, VA00:00.0 267921  437 Team Geargrinder
DNFTodd King   Neenah, WI00:00.0 179503  457 Team Wheel & Sprocket
DNFMichael Weber   Whitefish Bay, WI00:00.0 249214  461 ISCorp Cycling Team
DNFRich Delgado   Hoffman Estates, IL00:00.0 51887  486 Village Cyclesport
DNFBradley Cullen   Chilton, WI00:00.0 47563  501 O2 Cycling
DNFJim SURGES   00:00.0  516 LAPT

Men - Cat 3

 Place Points NameCity, StateTime USAC #BibTeam
1323.82Matias Perret   Iowa City, IA00:00.0 292569  763 Mercy-Specialized
2328.90Travis Heller   Parker, CO00:00.0 264205  756 Team Extreme Cycling
3333.98Kelby Shaw   Milwaukee, WI00:00.0 232522  817 River Valley Cycling Club
4339.05John Reynders   Seattle, WA00:00.0 255625  764 Team Wisconsin / MC2
5344.13Ethan Stone   Urbana, IL00:00.0 241831  870 Scarlet Fire
6349.21Ryan Bosio   Cordova, TN00:00.0 65704  864 Marx and Bensdorf Cycling Team
7354.29Mark Norton   Madison, WI00:00.0 291138  762 
8359.37Brian Morrissey   Chicago, IL00:00.0 261760  869 xXx Racing
9364.45Andrew Tegge   Green Bay , WI00:00.0 296361  795 Unattached
10369.52Samuel Geyer   Suamico, WI00:00.0 258210  796 Nova IS Corp
11374.60Andrew Stoll   Milwaukee, WI00:00.0 294900  765 ISCorp Cycling Team
12379.68Michael Jenich   Shorewood, WI00:00.0 260373  757 TEAM PEGASUS
13384.76Nathan Longley   Brookfield, WI00:00.0 239139  759 LAPT
14389.84Peter Davis   Whitefish Bay, WI00:00.0 255770  852 ISCorp Cycling Team
15394.92Brooks Leedahl   Madison, WI00:00.0 252130  792 Colavita Racing
16399.99Jon Alvarez   Madison, WI00:00.0 244751  816 5Nines Cycling
17405.07Nicholas Sabel   Ripon, WI00:00.0 263354  791 Fond du Lac Cyclery
18410.15Joseph Tortorelli   Champaign, IL00:00.0 160061  843 Verizon Wireless Racing
19415.23Michael Weber   Whitefish Bay, WI00:00.0 249214  784 ISCorp Cycling Team
20420.31Brad Ahrens   Sulphur, LA00:00.0 298121  799 Raising Cane's Racing
21425.39Bradley Cullen   Chilton, WI00:00.0 47563  753 O2/ Outdoor Outlet
22430.46Brian Krueger   Merrill, WI00:00.0 224056  758 Great Dane Velo Club
23435.54Richard Foley   Wallingford, CT00:00.0 11947  813 Bethel Cycle Sport Club
24440.62Ryan Carlson   Wauwatosa, WI00:00.0 273574  772 Team Wheel & Sprocket
25445.70Justin Dyszelski   Cudahy, WI00:00.0 268045  797 ISCorp Cycling Team
26450.78Voytek Glinkowski   Buffalo Grove, IL00:00.0 250244  872 WDT-Allvoi International Cycli
27455.85Justen Stracy   Omro, WI00:00.0 136599  854 Attitude Sports
28460.93Mark Sills   Champaign, IL00:00.0 219887  800 Verizon Wireless Racing
29466.01Kyle Foley   Wallingford, CT00:00.0 174494  755 IRS Medic
30471.09John Herrel   Denver, CO00:00.0 151226  844 Verizon Wireless
31476.17Jeramey Werbelow   West Bend, WI00:00.0 287594  768 Team Extreme
DNSBrian Stoveken   Madison, WI00:00.0 249708  767 Wisconsin/MC2
DNFBob Bryant   Wheaton, IL00:00.0 249865  770 Spin Doctor Cyclewerks
DNFDerek Hughes   Appleton, WI00:00.0 291716  785 O2 Cycling
DNFMichael Vail   Villapark, IL00:00.0 279212  806 ABD Cycling Team
DNFGregg Coroleuski   Pewaukee, WI00:00.0 49090  833 LAPT
DNFJames Ryan   San Jose, CA00:00.0 163902  851 Los Gatos
DNFSteven Roeder   Milwaukee, WI00:00.0 81307  871 Cafe Hollander RDC

Men - Cat 4/5

 Place Points NameCity, StateTime USAC #BibTeam
1334.15Justin Michels   Neenah, WI00:00.0 312324  1753 O2 Cycling
2340.23Lionel Rocheleau   Waukesha, WI00:00.0 274025  1645 Team Geargrinder
3346.30Nathan Labecki   Milwaukee, WI00:00.0 209414  1638 Expo Racing
4352.38Travis Miller   Jefferson, WI00:00.0 293344  1642 Brazen Dropouts
5358.46Quentin Capista   Shorewood, IL00:00.0 268877  1684 Project 5 Racing
6364.53Andrew Webb   Appleton, WI00:00.0 312724  1707 
7370.61Josh Fangman   Ashland Wi00:00.0 258007  1716 Brazen Dropouts
8376.69Jared Craft   Rogers, AR00:00.0 282380  1631 ALBERTO'S
9382.77Andrew Swokowski   Appleton, WI00:00.0 312344  1676 O2 Cycling
10388.84Adam Wachendorf   Chicago, IL00:00.0 40695  1650 
11394.92Ken Huxtable   Neenah Wi00:00.0 293876  1635 Brazen Dropouts/Cronometro
12401.00Daniel Schaefer   Adell, WI00:00.0 258370  1647 Team Fond du Lac/Oshkosh Cycle
13407.07Jared Rogers   Chicago, IL00:00.0 261146  1646 xXx Racing - AthletiCo
14413.15Brian Arfmann   Arlington Heights, IL00:00.0 282223  1691 Smart Cycling Bike Shop
15419.23Douglas Zalis   Chicago, IL00:00.0 181163  1654 Vision Quest
16425.30Ross Jacques   Fond Du Lac, WI00:00.0 317264  1798 Fond du Lac/Oshkosh Cyclery
17431.38Alex Docter   Wauwatosa00:00.0 291930  1709 Nova Cycle Sports Foundation I
18437.46Konrad Witt   Wood Dale, IL00:00.0 247336  1652 ABD
19443.54Kevin Lindlau   Waukesha, WI00:00.0 298079  1706 Nova IS Corp
20449.61Joshua Wright   Madison, WI00:00.0 69477  1693 Team Magnus
21455.69Anthony Phillips   Sun Prairie, WI00:00.0 260667  1696 Unattached
22461.77Shayne Santi   Verona, WI00:00.0 178364  1679 
23467.84Adam Gipril   Waukesha, WI00:00.0 297109  1793 Polska
24473.92Adam Cohen   Chicago, IL00:00.0 288286  1630 Team MS/ Pony Shop
25480.00Andrew Zens   Chicago, IL00:00.0 276599  1655 
26486.07Patrick Brock   West Bend, WI00:00.0 268180  1628 Team Extreme Cycling
27Sean STROSAHL   00:00.0  1797 
29498.23Nicholas Hardrath   Shorewood, WI00:00.0 185482  1633 hampshire cycle club
30Ben SCHREIBER   00:00.0  1795 Fond du Lac Cyclery
31510.38Eric Hardrath   Milwaukee Wi00:00.0 185463  1702 Team Wheel & Sprocket
32Tony LEMKE   00:00.0  1768 Fond du Lac Cyclery
33Andrew RIEDER   00:00.0  1794 Fond du Lac Cyclery
34528.61Steven Paukner   Milwaukee, WI00:00.0 293474  1723 Team Geargrinder
35Jacob AHLES   00:00.0  1796 
36540.77Andrew Redlin (1 - Cat5)   Appleton, WI00:00.0 291824  1677 
37546.84Bradley Byrge   Menomonee Falls, WI00:00.0 93230  1700 Unattached
DNSBryan WItry   Chicago, IL00:00.0 290447  1651 Spidermonkey Cycling
DNSJohn Wolters   Seattle, WA00:00.0 287592  1653 xXx Racing - AthletiCo
DNFAndrew Lindner   Morton, IL00:00.0 268834  1640 NA
DNFTony Kaatz   Ripon, WI00:00.0 297312  1663 Attitude Sports
DNFLeif Byrge-liebig   Menomonee Falls, WI00:00.0 280257  1698 Nova Cycle Sports Foundation I
DNFBrandon POSEWITZ   00:00.0  1760 

Men - Master

 Place Points NameCity, StateTime USAC #BibTeam
1413.00Larry Gundlach   Madison, WI00:00.0 192742  1087 MadCity Velo Club
2416.17Tom Starr   Oregon, WI00:00.0 123474  1140 MadCity Velo Club
3Marian PYSZCZEK   00:00.0  1043 Lifesport
4422.50Connan Foster   Mukwonago, WI00:00.0 308757  1094 
5425.67Andrew Feuersthaler   Milwaukee, WI00:00.0 288083  1025 Geargrinder
6428.84Michael Froh   Milwaukee, WI00:00.0 172255  1028 velo trocadero
7432.00Jeffrey Gantz   Green Bay Wi00:00.0 187394  1029 Team Extreme
8Peter EPPERSON   00:00.0  1093 Gear Grinder
9Doug CALLIES   00:00.0  1174 Davie Rock Star
10441.51John Timm   Germantown, WI00:00.0 209235  1045 Team Extreme
11444.67Terence Beilfuss   Port Washington, WI00:00.0 211273  1016 Team Extreme
12447.84David Genske   Prospect, KY00:00.0 63464  1132 Team Wheel & Sprocket
13451.01Eric Schram   Manitowoc, WI00:00.0 172959  1124 CZ Velo
14454.17Scott Diedrich   Fond Du Lac, WI00:00.0 308086  1058 
15457.34thomas wendland   Port Washington, WI00:00.0 262569  1100 Team Extreme
16460.51Donald Janczak   Greendale, WI00:00.0 295308  1037 trocadero
17463.68Dennis Klumb   East Troy, WI00:00.0 294347  1038 
18466.84Paul Weber   Menasha, WI00:00.0 129434  1046 O2 Cycling
19470.01James Buckley   De Pere, WI00:00.0 226361  1021 Colavita Racing
20473.18Andrew Rossa   Milwaukee, WI00:00.0 69191  1078 Team Extreme
21476.35David Nelson   Cedarburg, WI00:00.0 274913  1092 Team Extreme
22479.51James Hamer   Sussex, WI00:00.0 76555  1172 Unattached
23482.68Christian Meekma   Menomonee Falls, WI00:00.0 310737  1040 
24Jeff AYRE   00:00.0  1051 Woodcock Cycle Works
25John DANIELS   00:00.0  1056 
26492.18John Boudry   Waukesha, WI00:00.0 285578  1020 Team Extreme
27Christopher YAGGIE   00:00.0  1146 Attitude Sports
28498.52Colm Flannery   Chillicothe, IL00:00.0 263421  1148 Proctor Cycling Team
29501.68Todd Bugnacki   Franklin, WI00:00.0 81238  1114 
30504.85Quentin Gniot   Green Bay, WI00:00.0 293921  1031 Titletown Flyers
31508.02Benny Smith   Milwaukee, WI00:00.0 312254  1091 Team Gear Grinder
32511.19William Koch   Wauwatosa, WI00:00.0 282342  1119 CZ Velo
33514.35Dave Bednarek (1 - Cat4)   Fond Du Lac, WI00:00.0 259829  1116 Attitude Sports
34517.52Scott Ertl (2 - Cat4)   Cedarburg, WI00:00.0 265813  1024 Team Extreme
35520.69Daniel Guse (1 - Cat5)   Fond Du Lac, WI00:00.0 315190  1133 Fond du Lac/Oshkosh Cyclery
36523.86Mike Herbrand   Grafton, WI00:00.0 262578  1079 Team Extreme
37527.02Benjamin Schinke   Minneapolis, MN00:00.0 221927  1115 SilverCycling
39Jim MICHLER   00:00.0  1083 Gear Grinder
40Michael OLM   00:00.0  1173 Gen X Cycling
41536.52Charles Keuler (3 - Cat4)   Springfield, MO00:00.0 272085  1064 Ozark Cycling Club
42539.69Jacob Herber   Milwaukee, WI00:00.0 212565  1060 Nova Cycle Sports Foundation I
43Kurtis WESTEMEYER   00:00.0  1163 
44Oliver CLEMENTS   00:00.0  1175 Fond du Lac/Oshkosh Cyclery
45549.19Peter Kudlata   Mequon, WI00:00.0 277885  1089 Nova Cycle Sports Foundation I
46552.36Joseph Michels (4 - Cat4)   Fond Du Lac, WI00:00.0 54001  1162 Attitude Sports
47555.53Craig Howe   Cedarburg, WI00:00.0 266329  1033 GearGrinder
DNSPhilip Collin   Golf, IL00:00.0 7409  1022 GHS Silverbacks
DNSDonald Isaacs   Kingston Mines, IL00:00.0 243326  1036 Bicycle Heaven
DNSDouglas Zalis   Chicago, IL00:00.0 181163  1076 Vision Quest
DNPMike Hulen   Milwaukee, WI00:00.0 265328  1035 
DNPTim Lindner   Morton, IL00:00.0 289346  1039 Proctor Cycling Team
DNPThomas Kmezich   Glendale, WI00:00.0 280312  1177 Hampshire Cycle Club

Women - Cat 1/2/3

 Place Points NameCity, StateTime USAC #BibTeam
1127.48Jennifer Purcell   Austin, TX00:00.0 193628  288 Team Hotel San Jose p/b Gary F
2136.82Julie Jerue   Lakeland, FL00:00.0 217819  248 Nova IS Corp
3146.15Kristin Wentworth   Madison, WI00:00.0 207606  232 Team Kenda
4155.48Kristina Seley   San Luis Obispo, CA00:00.0 223809  278 Touchstone Climbing
5164.82Sydney Brown (1 - Cat1)   Lincoln, NE00:00.0 250848  202 Treads.com/DFT
6174.15Carrie Cash Wootten (2 - Cat1)   Saint Louis, MO00:00.0 163561  204 Team Vera Bradley
8183.49Frances Schofield   Palm Beach Gardens, FL00:00.0 68653  229 Z-Motion
9192.82Sarah Caravella   Boulder, CO00:00.0 199998  261 Team CARD
10202.16Elizabeth Morse Hill   Saint Petersburg, FL00:00.0 126302  221 ZMotion
11211.49Bianca Bergman   Saint Paul, MN00:00.0 281786  286 Texas Roadhouse p/b Motorex
12220.83Gina Voci   Charlotte, NC00:00.0 140372  283 Spokeswoman Syndicate
13230.16Jeannie Kuhajek (1 - Cat2)   Crystal Lake, IL00:00.0 316598  212 Team Mack Racing Association
14239.50Kim Ciolli   San Antonio, TX00:00.0 210485  205 FCS/Metro Volkswagen
15248.83Anne Meyer   La Crosse, WI00:00.0 55494  220 Mercy-Specialized
16258.16Melissa (Missy) Erickson   Alexandria Mn00:00.0 233106  242 Fort Lewis College
17267.50Jennifer (Jenner) Yaeso   Gallatin Gateway, MT00:00.0 166679  276 Gallatin Alpine Sports/Intrins
18276.83Linsey Bradshaw-Sandoval (2 - Cat2)   Los Alamos, NM00:00.0 237609  281 Treads.com/DFT
19286.17Cathryn Josefina Merla-Watson (3 - Cat1)   San Antonio, TX00:00.0 204807  219 FCS/Metro Volkswagen
20295.50Christine Riker   San Francisco, CA00:00.0 290240  225 Dolce Vita Cycling
21304.84Kendi Thomas (4 - Cat1)   Walla Walla, WA00:00.0 223064  260 Team Kenda Tire
22314.17Kate Mahoney   Roswell, GA00:00.0 294800  216 Performance Bicycle Racing
23Aimee ALLEN   00:00.0  200 Maple Leafe CC
24332.84Patricia Black   San Luis Obispo, CA00:00.0 72039  201 Morgan Stanley Smith Barney/Sp
25342.17Julie Kuliecza   Richmond, VA00:00.0 238481  213 Fruit 66/ Artemis
26351.51Lenore Pipes (5 - Cat1)   Ithaca, NY00:00.0 273047  224 Fruit66/Artemis
27360.84Kate Ross   Bristol, TN00:00.0 160047  228 Team CARD
28370.18Lindsey Durst   Saint Charles, MO00:00.0 270694  207 Team Kenda
29379.51Camie Kornely   Fort Lee, NJ00:00.0 215018  211 CRCA/Comedy Central-Sids Bikes
DNSJacquelyn Crowell   Alpharetta, GA00:00.0 185441  206 Team Type 1
DNSJessica Helmlinger   Cedarburg, WI00:00.0 255881  208 Cafe Hollander RDC
DNSMary Magnani   San Francisco, CA00:00.0 257717  215 Dolce Vita
DNSMorgan Patton   Athens, GA00:00.0 257696  222 Team Type 1
DNSKori Seehafer   Eau Claire Wi00:00.0 77841  230 Team Type 1
DNSMegan Hottman   Golden, CO00:00.0 194394  235 Treads.com/DFT
DNFRachel Byus   Argyle, TX00:00.0 260379  203 FCS/Metro Volkswagen
DNFCari Higgins   Boulder, CO00:00.0 225441  241 Peanut Butter & co.
DNFElena Dorr   Chicago, IL00:00.0 225028  284 Verve Racing

Women - Cat 3/4

 Place Points NameCity, StateTime USAC #BibTeam
1294.68Whitney Gaggioli   Coloma, WI00:00.0 215646  1903 
2Holly MATTHEWS   00:00.0  1781 Nova IS Corp
3319.36cathy frampton   La Grange, IL00:00.0 275322  1902 Project 5 Racing
4331.70Leah Sanda   Western Springs, IL00:00.0 268129  1971 Flatlandia Cycling Team
5344.04Angela Theriault   Whitefish Bay, WI00:00.0 210864  1930 Cafe Hollander RDC
6356.38Rebekah Dilley   Lincoln, NE00:00.0 309115  1935 Team KAOS- Alegent Health
7368.72Heidi Stangl   Shorewood, WI00:00.0 314232  1959 Gear Grinder
8381.06Krista Baber   Elkhorn, WI00:00.0 313644  1908 Nova IS Corp
9393.40Dana Jones   Milwaukee, WI00:00.0 312005  1941 Nova IS Corp
10405.74Meghan Lapeta   Chicago, IL00:00.0 204804  1922 Smart Cycling Bike Shop
11418.07Stephanie Dameral   Vacaville, CA00:00.0 287351  1915 Early Bird Women's Development
12430.41Dena Eaton   Park City, UT00:00.0 61672  1901 shePedals Cycling
13442.75Jannette Rho   Chicago, IL00:00.0 288738  1912 
14455.09Sara Liebert   Milwaukee Wi00:00.0 315192  1958 
15467.43Sara Grant   Sun Prairie, WI00:00.0 290691  1966 MadCity Velo Club
16479.77Katie Isermann   Chicago, IL00:00.0 300135  1906 Iron Cycles
17492.11Dawn LaCoursiere   Beaver Dam, WI00:00.0 311174  1968 MadCity Velo
18504.45Jerel Lynn Waide   Durham, NC00:00.0 277863  1913 Project 5 Racing
19516.79Alecia Jasper (1 - Cat4)   Oak Creek, WI00:00.0 244027  1983 velo trocadero cycling
20529.13Melanie Feuerstein   Whitewater, WI00:00.0 308735  1925 UW Whitewater Cycling
21541.47Alice Hagen   Milwaukee, WI00:00.0 226675  1905 Team Chiropractic Partners
22553.81Yvonne Schumacher (1 - Cat3)   Mukwonago, WI00:00.0 241694  1940 Nova Cycle Sports Foundation I
23566.15Tracy Mather   Greenfield, WI00:00.0 246314  1929 Velo Trocadero
DNSAlissa Maglaty   Portland00:00.0 288500  1917 Early Bird Women's Development
DNSMandy Marquardt   Allentown, PA00:00.0 200340  1910 Team Type 1
DQDeanna Courtney   Hartland, WI00:00.0 263319  1932 Team Chiropractic Partners
DNFMeredith Peterson   Madison, WI00:00.0 248348  1928 Kenda Tire
DNFSara GUSE   00:00.0  1982 Fond du Lac/Oshkosh Cyclery

Report missing or incorrect license numbers

Volkswagen
Sierra NevadaSpyBonk BreakerUSACDFShimano
UCI USA Cycling is the official governing body for all disciplines of competitive cycling in the United States. The 501c3, membership-based organization aims both to achieve sustained success in international cycling competition and to grow competitive cycling in America while delivering an exceptional customer experience.
View Children's Online Privacy Protection Policy
US Olympic Committee